Location: Boiro
(42.6475°N, 8.8834°W)
Time: 03:43:01
(UTC+02:00)

NANOSAT C BR1 - Visible Passes

Search period start: 18 August 2022 00:00
Search period end: 28 August 2022 00:00
Orbit: 584 x 599 km, 98.0° (Epoch: 17 August)

Date Brightness Start Highest point End Pass type
(mag) Time Alt. Az. Time Alt. Az. Time Alt. Az.
18 Aug ? 03:48:11 10° NE 03:49:43 15° ENE 03:49:43 15° ENE visible
18 Aug ? 05:22:40 10° N 05:26:17 41° WNW 05:26:17 41° WNW visible
19 Aug ? 03:56:21 10° NE 03:58:16 18° ENE 03:58:16 18° ENE visible
19 Aug ? 05:31:19 10° N 05:34:50 33° WNW 05:34:50 33° WNW visible
20 Aug ? 04:04:37 10° NE 04:06:49 21° ENE 04:06:49 21° ENE visible
20 Aug ? 05:40:01 10° N 05:43:23 28° WNW 05:43:23 28° WNW visible
21 Aug ? 04:12:56 10° NE 04:15:21 25° ENE 04:15:21 25° ENE visible
21 Aug ? 05:48:43 10° NNW 05:51:55 23° WNW 05:51:55 23° WNW visible
22 Aug ? 04:21:19 10° NNE 04:23:53 29° ENE 04:23:53 29° ENE visible
22 Aug ? 05:57:31 10° NNW 06:00:27 19° WNW 06:00:27 19° WNW visible
23 Aug ? 04:29:43 10° NNE 04:32:24 34° NE 04:32:24 34° NE visible
23 Aug ? 06:06:22 10° NNW 06:08:53 16° WNW 06:08:58 16° WNW visible
24 Aug ? 04:38:09 10° NNE 04:40:56 38° NE 04:40:56 38° NE visible
24 Aug ? 06:15:21 10° NW 06:17:18 13° WNW 06:17:29 13° WNW visible
25 Aug ? 04:46:38 10° NNE 04:49:26 41° NNE 04:49:26 41° NNE visible
25 Aug ? 06:24:43 10° NW 06:25:42 11° WNW 06:26:00 11° WNW visible
26 Aug ? 04:55:07 10° NNE 04:57:56 42° N 04:57:56 42° N visible
27 Aug ? 05:03:38 10° N 05:06:27 41° N 05:06:27 41° N visible
